TimeCDT,TemperatureF,Dew PointF,Humidity,Sea Level PressureIn,VisibilityMPH,Wind Direction,Wind SpeedMPH,Gust SpeedMPH,PrecipitationIn,Events,Conditions,WindDirDegrees,DateUTC
12:54 AM,75.0,66.0,73,30.14,10.0,SSE,3.5,-,N/A,,Clear,150,2013-06-21 05:54:00
1:54 AM,71.1,64.9,81,30.14,10.0,Calm,Calm,-,N/A,,Clear,0,2013-06-21 06:54:00
2:54 AM,70.0,66.0,87,30.13,10.0,Calm,Calm,-,N/A,,Clear,0,2013-06-21 07:54:00
3:54 AM,68.0,64.9,90,30.13,8.0,Calm,Calm,-,N/A,,Clear,0,2013-06-21 08:54:00
4:54 AM,68.0,66.0,93,30.14,7.0,NE,4.6,-,N/A,,Mostly Cloudy,50,2013-06-21 09:54:00
5:54 AM,69.1,66.0,90,30.15,6.0,Calm,Calm,-,N/A,,Scattered Clouds,0,2013-06-21 10:54:00
6:54 AM,71.1,66.9,87,30.16,7.0,Calm,Calm,-,N/A,,Mostly Cloudy,0,2013-06-21 11:54:00
7:54 AM,75.0,66.9,76,30.17,10.0,Calm,Calm,-,N/A,,Overcast,0,2013-06-21 12:54:00
8:54 AM,78.1,68.0,71,30.17,10.0,South,8.1,-,N/A,,Mostly Cloudy,190,2013-06-21 13:54:00
9:54 AM,79.0,68.0,69,30.17,10.0,SE,3.5,-,N/A,,Mostly Cloudy,130,2013-06-21 14:54:00
10:54 AM,84.0,69.1,61,30.17,10.0,Variable,5.8,-,N/A,,Clear,0,2013-06-21 15:54:00
11:54 AM,88.0,71.1,57,30.17,10.0,SSW,6.9,-,N/A,,Clear,200,2013-06-21 16:54:00
12:54 PM,89.1,69.1,52,30.15,10.0,SSW,10.4,-,N/A,,Scattered Clouds,210,2013-06-21 17:54:00
1:54 PM,88.0,69.1,53,30.14,10.0,South,8.1,-,N/A,,Scattered Clouds,180,2013-06-21 18:54:00
2:54 PM,90.0,69.1,50,30.12,10.0,SSW,12.7,17.3,N/A,,Partly Cloudy,200,2013-06-21 19:54:00
3:54 PM,90.0,70.0,52,30.09,10.0,South,8.1,-,N/A,,Mostly Cloudy,180,2013-06-21 20:54:00
4:54 PM,89.1,69.1,52,30.09,10.0,Variable,6.9,-,N/A,,Overcast,0,2013-06-21 21:54:00
5:54 PM,88.0,68.0,51,30.10,10.0,SW,11.5,-,0.00,Rain,Light Rain,220,2013-06-21 22:54:00
6:54 PM,84.0,73.0,69,30.09,10.0,Calm,Calm,-,0.04,,Partly Cloudy,0,2013-06-21 23:54:00
7:54 PM,81.0,73.0,77,30.12,9.0,ESE,9.2,-,N/A,,Clear,110,2013-06-22 00:54:00
8:54 PM,77.0,69.1,76,30.13,10.0,SE,4.6,-,N/A,,Clear,140,2013-06-22 01:54:00
9:54 PM,75.9,66.9,74,30.10,10.0,South,5.8,-,N/A,,Clear,180,2013-06-22 02:54:00
10:54 PM,75.9,66.0,71,30.10,10.0,South,4.6,-,N/A,,Clear,190,2013-06-22 03:54:00
11:54 PM,75.0,64.9,71,30.11,10.0,SSW,3.5,-,N/A,,Clear,200,2013-06-22 04:54:00